TGW519 VVDN-WSSS

Flight info

Callsign TGW519
Flight time N/A
Altitude 36000
Route SADIN1A SADIN Q1 AC L644 CN L642 ESPOB/N0459F360 Q801 ESBUM/N0458F370 Q802 ELALO ELALO1B
Aircraft A320/M-SDFGHIRWYZ/LB1

Departure

Time 2026-05-07 05:31
Airport Da Nang International Airport (VVDN)

Arrival

Time N/A
Airport Singapore Changi Airport (WSSS)
Time Latitude Longitude Altitude Speed Heading
2026-05-07 05:06 16.05818 108.20130 35 ft 0 kts 82°
2026-05-07 05:21 16.05818 108.20129 34 ft 0 kts 82°
2026-05-07 05:23 16.05817 108.20121 34 ft 3 kts 82°
2026-05-07 05:23 16.05814 108.20097 34 ft 3 kts 83°
2026-05-07 05:23 16.05810 108.20072 34 ft 3 kts 83°
2026-05-07 05:24 16.05807 108.20050 34 ft 3 kts 51°
2026-05-07 05:24 16.05790 108.20042 34 ft 3 kts 12°
2026-05-07 05:24 16.05775 108.20037 34 ft 3 kts
2026-05-07 05:24 16.05770 108.20038 34 ft 3 kts 332°
2026-05-07 05:25 16.05749 108.20043 34 ft 3 kts 352°
2026-05-07 05:25 16.05727 108.20047 34 ft 2 kts 352°
2026-05-07 05:25 16.05725 108.20047 33 ft 0 kts 352°
2026-05-07 05:27 16.05729 108.20046 34 ft 0 kts 352°
2026-05-07 05:28 16.05738 108.20045 33 ft 2 kts 352°
2026-05-07 05:28 16.05760 108.20038 34 ft 4 kts 325°
2026-05-07 05:28 16.05763 108.20005 34 ft 6 kts 267°
2026-05-07 05:28 16.05784 108.19982 34 ft 7 kts 339°
2026-05-07 05:29 16.05842 108.19973 34 ft 11 kts 354°
2026-05-07 05:29 16.05925 108.19964 34 ft 13 kts 353°
2026-05-07 05:29 16.06000 108.19953 34 ft 9 kts 351°
2026-05-07 05:29 16.06039 108.19907 34 ft 10 kts 259°
2026-05-07 05:30 16.06026 108.19831 33 ft 10 kts 261°
2026-05-07 05:30 16.05956 108.19813 33 ft 22 kts 172°
2026-05-07 05:30 16.05584 108.19868 32 ft 87 kts 172°
2026-05-07 05:30 16.04797 108.19983 33 ft 139 kts 172°
2026-05-07 05:31 16.03694 108.20140 109 ft 173 kts 173°
2026-05-07 05:31 16.02558 108.20313 681 ft 173 kts 172°
2026-05-07 05:31 16.01359 108.20505 1346 ft 173 kts 170°
2026-05-07 05:31 16.00162 108.20707 1934 ft 180 kts 170°
2026-05-07 05:32 15.98848 108.20929 2195 ft 203 kts 170°
2026-05-07 05:32 15.97369 108.21174 2471 ft 227 kts 171°
2026-05-07 05:32 15.95716 108.21206 2812 ft 250 kts 182°
2026-05-07 05:32 15.93928 108.21111 3416 ft 262 kts 182°
2026-05-07 05:33 15.92083 108.20999 3869 ft 267 kts 182°
2026-05-07 05:33 15.90221 108.20881 3978 ft 269 kts 183°
2026-05-07 05:33 15.88354 108.20766 4075 ft 272 kts 182°
2026-05-07 05:33 15.86453 108.20655 4887 ft 273 kts 182°
2026-05-07 05:34 15.84546 108.20550 5729 ft 276 kts 182°
2026-05-07 05:34 15.82611 108.20444 6486 ft 280 kts 182°
2026-05-07 05:34 15.80666 108.20336 7199 ft 285 kts 182°
2026-05-07 05:34 15.78669 108.20225 7893 ft 289 kts 183°
2026-05-07 05:35 15.76644 108.20111 8563 ft 294 kts 183°
2026-05-07 05:35 15.74590 108.19996 9232 ft 297 kts 182°
2026-05-07 05:35 15.72511 108.19882 9869 ft 301 kts 183°
2026-05-07 05:35 15.70389 108.19765 10330 ft 313 kts 183°
2026-05-07 05:36 15.68129 108.19642 10466 ft 335 kts 183°
2026-05-07 05:36 15.65739 108.19510 10684 ft 351 kts 183°
2026-05-07 05:36 15.63276 108.19375 11193 ft 356 kts 182°
2026-05-07 05:36 15.60792 108.19235 11770 ft 359 kts 183°
2026-05-07 05:37 15.58358 108.19097 12357 ft 362 kts 182°
2026-05-07 05:37 15.55938 108.18963 12924 ft 364 kts 182°
2026-05-07 05:37 15.53393 108.18821 13499 ft 367 kts 182°
2026-05-07 05:37 15.50958 108.18683 14024 ft 370 kts 183°
2026-05-07 05:38 15.48375 108.18555 14564 ft 373 kts 182°
2026-05-07 05:38 15.45736 108.18479 15102 ft 376 kts 181°
2026-05-07 05:38 15.43138 108.18436 15631 ft 379 kts 180°
2026-05-07 05:38 15.40498 108.18403 16129 ft 382 kts 180°
2026-05-07 05:39 15.37825 108.18366 16632 ft 385 kts 180°
2026-05-07 05:39 15.35134 108.18323 17132 ft 388 kts 181°
2026-05-07 05:39 15.32419 108.18273 17633 ft 391 kts 181°
2026-05-07 05:39 15.29694 108.18217 18117 ft 394 kts 181°
2026-05-07 05:40 15.26948 108.18155 18600 ft 396 kts 181°
2026-05-07 05:40 15.24182 108.18089 19074 ft 399 kts 181°
2026-05-07 05:40 15.21385 108.18025 19548 ft 402 kts 181°
2026-05-07 05:40 15.18572 108.17964 19997 ft 406 kts 181°
2026-05-07 05:41 15.15734 108.17901 20455 ft 409 kts 181°
2026-05-07 05:41 15.12880 108.17836 20912 ft 412 kts 181°
2026-05-07 05:41 15.10004 108.17771 21376 ft 415 kts 181°
2026-05-07 05:41 15.07100 108.17706 21790 ft 418 kts 181°
2026-05-07 05:42 15.04223 108.17641 22188 ft 420 kts 181°
2026-05-07 05:42 15.01291 108.17573 22574 ft 423 kts 181°
2026-05-07 05:42 14.98335 108.17507 22943 ft 426 kts 181°
2026-05-07 05:42 14.95367 108.17440 23305 ft 428 kts 181°
2026-05-07 05:43 14.92381 108.17371 23656 ft 431 kts 181°
2026-05-07 05:43 14.89377 108.17301 23988 ft 433 kts 181°
2026-05-07 05:43 14.86362 108.17233 24318 ft 435 kts 181°
2026-05-07 05:43 14.83326 108.17169 24647 ft 437 kts 181°
2026-05-07 05:44 14.80273 108.17106 24964 ft 439 kts 181°
2026-05-07 05:44 14.77212 108.17042 25265 ft 441 kts 181°
2026-05-07 05:44 14.74152 108.16976 25575 ft 443 kts 181°
2026-05-07 05:44 14.71054 108.16906 25871 ft 445 kts 181°
2026-05-07 05:45 14.67955 108.16836 26183 ft 447 kts 181°
2026-05-07 05:45 14.64838 108.16765 26461 ft 449 kts 181°
2026-05-07 05:45 14.61714 108.16696 26741 ft 450 kts 181°
2026-05-07 05:45 14.58571 108.16629 27015 ft 452 kts 181°
2026-05-07 05:46 14.55419 108.16563 27280 ft 454 kts 181°
2026-05-07 05:46 14.52258 108.16496 27545 ft 455 kts 181°
2026-05-07 05:46 14.49122 108.16425 27806 ft 457 kts 181°
2026-05-07 05:46 14.45932 108.16354 28076 ft 458 kts 181°
2026-05-07 05:47 14.42731 108.16285 28347 ft 460 kts 181°
2026-05-07 05:47 14.39529 108.16215 28613 ft 462 kts 181°
2026-05-07 05:47 14.36306 108.16145 28876 ft 463 kts 181°
2026-05-07 05:47 14.33077 108.16073 29136 ft 465 kts 181°
2026-05-07 05:48 14.29828 108.15999 29402 ft 467 kts 181°
2026-05-07 05:48 14.26588 108.15929 29776 ft 465 kts 181°
2026-05-07 05:48 14.23358 108.15863 30160 ft 464 kts 181°
2026-05-07 05:48 14.20132 108.15798 30540 ft 463 kts 181°
2026-05-07 05:49 14.16913 108.15729 30907 ft 462 kts 181°
2026-05-07 05:49 14.13705 108.15659 31264 ft 461 kts 181°
2026-05-07 05:49 14.10504 108.15588 31622 ft 461 kts 181°
2026-05-07 05:49 14.07302 108.15515 31989 ft 460 kts 181°
2026-05-07 05:50 14.04102 108.15445 32356 ft 459 kts 181°
2026-05-07 05:50 14.00916 108.15377 32722 ft 458 kts 181°
2026-05-07 05:50 13.97729 108.15310 33087 ft 457 kts 181°
2026-05-07 05:50 13.94547 108.15242 33442 ft 456 kts 182°
2026-05-07 05:51 13.91414 108.15174 33782 ft 456 kts 181°
2026-05-07 05:51 13.88245 108.15106 34116 ft 455 kts 182°
2026-05-07 05:51 13.85076 108.15036 34438 ft 454 kts 182°
2026-05-07 05:51 13.81919 108.14964 34756 ft 454 kts 182°
2026-05-07 05:52 13.78764 108.14891 35061 ft 453 kts 182°
2026-05-07 05:52 13.75728 108.14824 35348 ft 453 kts 182°
2026-05-07 05:52 13.72574 108.14756 35641 ft 452 kts 182°
2026-05-07 05:52 13.69431 108.14689 35836 ft 453 kts 182°
2026-05-07 05:53 13.66263 108.14619 35885 ft 457 kts 182°
2026-05-07 05:53 13.59872 108.14471 35866 ft 460 kts 182°
2026-05-07 05:54 13.53466 108.14334 35887 ft 461 kts 182°
2026-05-07 05:54 13.48119 108.14221 35888 ft 461 kts 182°
2026-05-07 05:55 13.40658 108.14055 35888 ft 461 kts 182°
2026-05-07 05:55 13.35285 108.13940 35888 ft 461 kts 182°
2026-05-07 05:56 13.28880 108.13802 35888 ft 461 kts 182°
2026-05-07 05:56 13.22500 108.13653 35890 ft 461 kts 182°
2026-05-07 05:57 13.16220 108.13504 35890 ft 461 kts 182°
2026-05-07 05:57 13.09787 108.13342 35890 ft 462 kts 182°
2026-05-07 05:58 13.03357 108.13187 35890 ft 462 kts 182°
2026-05-07 05:58 12.96927 108.13035 35888 ft 461 kts 182°
2026-05-07 05:59 12.90549 108.12882 35888 ft 462 kts 182°
2026-05-07 05:59 12.84124 108.12725 35889 ft 462 kts 182°
2026-05-07 06:00 12.77690 108.12573 35888 ft 462 kts 182°
2026-05-07 06:00 12.71264 108.12420 35887 ft 462 kts 182°
2026-05-07 06:01 12.64828 108.12260 35885 ft 462 kts 182°
2026-05-07 06:01 12.58394 108.12125 35887 ft 462 kts 181°
2026-05-07 06:02 12.52052 108.12016 35886 ft 462 kts 181°
2026-05-07 06:02 12.45619 108.11899 35886 ft 462 kts 181°
2026-05-07 06:03 12.39174 108.11767 35886 ft 462 kts 181°
2026-05-07 06:03 12.32739 108.11634 35883 ft 462 kts 181°
2026-05-07 06:04 12.26305 108.11503 35884 ft 462 kts 181°
2026-05-07 06:04 12.20043 108.11378 35885 ft 462 kts 181°
2026-05-07 06:05 12.13722 108.11252 35884 ft 462 kts 181°
2026-05-07 06:05 12.07291 108.11123 35884 ft 462 kts 181°
2026-05-07 06:06 12.00853 108.10997 35886 ft 463 kts 181°
2026-05-07 06:06 11.94466 108.10378 35884 ft 461 kts 195°
2026-05-07 06:06 11.91445 108.09297 35879 ft 459 kts 206°
2026-05-07 06:07 11.88678 108.07697 35878 ft 458 kts 216°
2026-05-07 06:07 11.83885 108.03419 35866 ft 458 kts 223°
2026-05-07 06:08 11.79373 107.99149 35873 ft 459 kts 223°
2026-05-07 06:08 11.74630 107.94690 35872 ft 459 kts 223°
2026-05-07 06:09 11.69933 107.90271 35879 ft 459 kts 223°
2026-05-07 06:09 11.65315 107.85920 35878 ft 459 kts 223°
2026-05-07 06:10 11.60632 107.81496 35871 ft 459 kts 223°
2026-05-07 06:10 11.55936 107.77064 35869 ft 459 kts 223°
2026-05-07 06:11 11.51316 107.72717 35859 ft 459 kts 223°
2026-05-07 06:11 11.46671 107.68350 35858 ft 460 kts 223°
2026-05-07 06:12 11.41972 107.63933 35861 ft 460 kts 223°
2026-05-07 06:12 11.37269 107.59514 35855 ft 460 kts 223°
2026-05-07 06:13 11.32568 107.55094 35847 ft 460 kts 223°
2026-05-07 06:13 11.27887 107.50691 35849 ft 460 kts 223°
2026-05-07 06:14 11.23181 107.46268 35845 ft 460 kts 223°
2026-05-07 06:14 11.18471 107.41850 35849 ft 460 kts 223°
2026-05-07 06:15 11.13757 107.37437 35852 ft 460 kts 223°
2026-05-07 06:15 11.09038 107.33019 35844 ft 460 kts 223°
2026-05-07 06:16 11.04332 107.28597 35842 ft 460 kts 223°
2026-05-07 06:16 10.99618 107.24174 35848 ft 460 kts 223°
2026-05-07 06:17 10.94731 107.20046 35845 ft 460 kts 212°
2026-05-07 06:17 10.88854 107.17556 35837 ft 460 kts 194°
2026-05-07 06:18 10.82634 107.15998 35833 ft 461 kts 194°
2026-05-07 06:18 10.76417 107.14420 35836 ft 461 kts 194°
2026-05-07 06:19 10.70188 107.12838 35834 ft 461 kts 194°
2026-05-07 06:19 10.63961 107.11260 35835 ft 461 kts 194°
2026-05-07 06:20 10.57819 107.09709 35838 ft 461 kts 194°
2026-05-07 06:20 10.51585 107.08136 35838 ft 462 kts 194°
2026-05-07 06:21 10.45351 107.06559 35842 ft 462 kts 194°
2026-05-07 06:21 10.39106 107.04965 35845 ft 462 kts 194°
2026-05-07 06:22 10.32867 107.03371 35846 ft 462 kts 194°
2026-05-07 06:22 10.23512 107.00979 35851 ft 462 kts 194°
2026-05-07 06:23 10.17269 106.99382 35844 ft 462 kts 194°
2026-05-07 06:23 10.11158 106.97827 35848 ft 462 kts 194°
2026-05-07 06:24 10.04916 106.96240 35854 ft 462 kts 194°
2026-05-07 06:24 9.98672 106.94651 35852 ft 462 kts 194°
2026-05-07 06:25 9.92521 106.93082 35854 ft 462 kts 194°
2026-05-07 06:25 9.86284 106.91496 35844 ft 462 kts 194°
2026-05-07 06:26 9.80136 106.89939 35851 ft 462 kts 194°
2026-05-07 06:26 9.78805 106.89601 35851 ft 462 kts 194°